Theta_e
303 303 303 302 303 303 303 304 307 308 311 318 331 330 332 330 330 335 337 335 335 332 328 328 326 325 326 325 324 322 319 316 313 308 304 302 302 302 303 303 304 309 312
300 302 303 302 304 305 306 306 305 305 307 310 311 326 332 333 335 335 334 334 334 332 333 328 326 325 323 322 323 323 319 317 314 308 301 299 300 301 301 301 303 303 306
300 301 304 305 306 307 307 308 307 306 306 306 308 310 316 328 328 328 329 332 333 332 331 331 330 326 326 323 322 323 321 319 314 310 306 299 297 297 299 301 301 302 303
301 304 305 306 307 307 308 309 310 308 308 306 305 304 305 306 316 326 329 330 330 330 330 329 329 327 326 326 328 326 325 322 317 313 313 309 304 298 296 299 301 303 302
301 303 305 307 308 308 308 308 309 309 308 307 306 303 303 304 307 308 312 321 328 330 329 329 326 325 325 326 327 325 325 325 324 317 314 311 308 304 299 296 298 301 302
302 304 305 306 306 306 306 306 306 307 308 307 306 305 303 303 304 304 305 308 316 321 325 326 326 326 328 327 325 326 324 324 325 323 318 313 311 309 303 299 297 299 299
301 302 303 303 304 304 304 306 305 305 306 306 306 306 305 304 304 304 305 306 309 313 314 320 323 323 324 324 326 326 326 325 323 323 317 316 313 313 310 305 300 297 295
301 302 303 302 302 302 302 302 302 303 304 305 305 306 307 307 307 307 307 307 307 309 310 311 313 318 321 322 324 324 324 324 323 320 320 315 314 313 309 308 305 294 292
301 301 301 301 302 301 301 301 301 301 301 302 302 304 304 305 305 305 306 306 306 310 308 309 309 311 316 319 319 321 320 321 321 321 319 318 313 310 310 308 307 305 298
301 300 300 300 301 301 300 300 300 299 299 299 301 301 301 300 300 299 298 300 302 305 305 305 306 307 309 310 311 314 315 316 314 313 313 306 302 301 300 300 299 299 299
299 298 298 299 301 300 299 298 298 297 297 298 298 297 297 297 296 295 294 294 296 298 299 299 301 301 302 303 305 306 308 310 306 302 300 296 297 296 295 296 296 296 296
298 297 297 298 298 297 296 296 296 296 296 296 295 295 294 294 293 292 293 293 292 293 293 294 294 294 296 296 297 297 298 299 298 297 296 294 294 293 294 294 293 293 293
297 296 296 296 296 294 295 295 295 295 295 295 293 293 292 292 291 291 292 292 292 292 294 294 293 293 294 293 293 293 292 292 292 292 292 292 292 291 291 291 289 289 289
297 295 296 295 294 294 295 294 294 294 294 293 292 291 291 291 291 291 292 292 293 293 294 294 293 293 293 293 292 292 291 291 291 291 291 291 290 289 288 288 288 288 287
295 294 294 293 293 293 293 293 293 294 293 292 291 290 291 293 294 294 292 292 292 294 294 294 294 292 292 292 289 289 289 289 288 288 291 292 293 293 292 288 287 287 286
295 294 294 293 292 291 292 293 293 293 293 291 290 290 291 292 292 291 291 291 290 290 291 291 292 292 293 294 293 288 287 287 287 286 286 287 288 291 294 293 291 289 286
294 293 292 291 291 292 292 291 291 292 292 292 291 291 291 290 290 290 290 289 289 289 288 289 290 291 292 294 292 290 286 286 285 285 285 285 287 286 285 287 287 288 289
293 292 291 291 291 291 291 291 291 293 292 291 290 291 290 289 289 289 288 287 287 287 286 286 288 289 291 292 291 289 281 279 280 281 282 282 282 284 285 283 283 283 283
292 291 290 290 290 290 290 290 289 291 290 289 289 290 290 289 289 287 286 286 286 285 285 284 280 280 283 289 289 284 280 279 280 281 281 281 280 287 288 282 281 281 280
292 290 290 290 289 289 290 288 290 290 289 289 289 290 290 289 288 287 286 287 286 284 280 278 279 287 281 290 289 283 279 277 279 278 280 287 284 287 287 280 278 276 277
292 291 290 289 288 289 289 289 289 289 290 290 290 290 290 289 288 287 287 280 275 275 275 280 279 281 282 283 288 288 281 279 279 279 278 280 285 285 284 283 277 278 279
292 291 289 288 288 289 289 289 288 290 291 290 289 288 289 289 288 285 282 281 280 278 278 278 277 279 280 286 286 287 286 284 279 279 278 279 283 283 283 281 282 283 282
291 292 289 288 288 289 291 289 289 290 290 289 289 288 287 286 286 282 281 279 278 277 276 276 275 276 278 279 286 286 285 285 280 280 282 284 283 282 279 281 282 282 276
291 291 290 290 288 290 291 290 290 291 290 289 286 285 282 280 280 280 280 278 277 275 275 275 275 275 277 278 278 279 278 282 280 281 278 280 280 280 279 278 278 277 276
291 291 290 290 289 290 291 291 291 291 289 286 282 279 279 279 279 281 279 278 279 279 276 276 277 276 276 279 282 281 280 278 281 279 276 274 274 274 275 276 276 276 277
291 290 292 290 290 290 291 291 291 291 286 281 279 278 278 277 278 279 280 285 285 285 285 284 280 280 283 283 283 283 283 283 283 277 274 272 272 273 274 275 275 275 276
Wind_Speed
4 5 7 6 6 8 8 7 6 4 2 1 3 2 5 4 4 5 7 5 3 5 6 5 5 5 7 8 7 5 7 5 5 4 2 3 4 6 5 5 5 7 9
5 5 6 7 8 6 6 7 6 6 5 2 0 1 3 4 7 6 5 5 5 5 4 5 6 6 4 5 6 8 4 3 5 4 2 2 4 4 6 5 6 8 6
7 5 7 7 7 8 7 6 6 5 3 3 3 2 2 1 1 2 3 6 7 7 6 6 5 5 6 6 6 6 8 8 3 6 6 2 7 1 3 10 7 7 6
6 6 6 6 6 4 5 6 6 6 3 4 3 2 1 1 2 2 3 5 7 7 7 7 8 6 5 7 9 8 8 6 7 3 8 1 3 5 3 3 5 5 7
7 7 6 6 5 5 4 5 6 5 5 4 2 1 2 2 2 3 4 4 5 7 8 7 7 6 4 5 6 5 8 8 10 8 4 8 3 2 2 4 4 3 3
7 6 6 7 4 5 6 6 7 5 6 6 5 4 3 4 3 4 4 4 3 3 5 6 6 6 6 7 5 5 5 6 9 8 10 8 8 12 5 4 3 3 3
7 6 6 5 4 5 5 5 6 6 6 7 6 6 5 4 4 5 4 5 4 3 6 6 4 4 6 5 5 6 6 6 8 10 8 9 10 7 7 6 4 3 2
6 7 6 5 4 5 5 5 6 6 7 7 7 6 7 4 3 4 4 4 4 3 5 6 7 6 5 5 5 3 4 6 6 9 9 7 8 7 6 7 8 3 3
7 7 6 5 5 4 4 4 5 6 7 7 6 7 7 8 7 7 6 4 4 5 6 6 7 7 6 4 5 3 3 5 6 7 6 7 6 4 5 5 5 10 8
7 5 5 5 4 4 4 6 6 6 6 7 6 6 7 7 6 6 7 7 7 7 7 7 6 7 7 6 6 4 4 4 3 3 4 2 2 3 2 2 1 3 2
7 6 5 3 5 5 6 6 6 6 6 6 6 7 7 7 7 7 6 7 6 7 7 7 6 6 6 7 6 6 6 5 4 4 3 4 3 2 2 2 2 2 2
7 6 5 4 5 6 6 6 6 6 5 5 6 6 6 6 7 6 6 6 6 6 6 6 7 8 8 8 7 7 8 7 6 5 4 5 3 4 3 2 2 2 2
7 5 4 4 6 6 6 6 5 5 5 6 6 6 6 6 6 6 5 6 5 5 6 7 8 7 7 7 7 7 8 7 7 7 6 5 4 3 2 3 3 3 2
7 5 4 4 5 5 6 5 5 5 4 6 6 5 5 5 5 5 6 7 6 7 7 8 7 6 7 8 7 7 8 8 8 8 8 7 7 6 5 5 4 4 4
6 6 5 4 4 6 5 6 5 4 4 5 5 5 4 6 7 7 7 8 9 7 7 7 7 6 7 6 7 9 9 9 9 9 9 8 10 11 9 4 4 5 4
6 6 6 6 6 5 5 5 5 5 5 5 5 5 6 7 7 7 8 8 8 8 10 10 9 9 7 15 15 10 8 8 8 8 8 8 12 11 11 9 7 3 2
6 6 6 6 6 5 6 6 5 5 5 5 7 7 6 6 7 7 7 6 6 7 9 8 8 8 9 15 15 14 8 7 7 6 5 5 5 8 5 6 6 6 5
6 6 6 6 5 5 6 6 5 5 5 6 7 7 6 6 5 5 5 6 6 7 6 7 7 6 7 14 14 14 5 5 5 4 3 3 3 3 3 2 4 4 4
5 5 5 5 5 6 6 6 6 5 6 6 6 6 6 6 4 5 5 4 7 6 5 3 4 4 4 10 10 7 4 4 4 4 3 4 4 5 8 5 5 4 4
6 7 6 5 6 5 6 6 6 5 6 6 6 6 6 5 4 5 4 3 5 4 2 2 2 8 6 10 11 6 2 3 3 3 5 8 5 7 7 4 3 3 2
6 7 6 6 6 6 7 7 5 4 5 6 6 6 5 5 5 4 2 1 2 2 2 4 3 4 5 6 9 9 3 3 3 3 2 3 6 6 7 5 1 3 2
6 6 6 6 5 6 7 7 5 4 5 6 6 6 5 5 5 5 3 2 2 3 2 3 2 2 3 4 6 8 6 6 3 1 1 3 6 7 6 3 3 4 4
6 5 7 7 5 5 7 7 5 5 6 6 7 6 5 5 5 5 4 2 3 3 3 2 1 1 1 3 7 8 5 6 2 1 5 7 8 7 5 5 6 3 1
6 5 9 8 7 6 7 6 7 7 7 7 6 5 5 5 4 3 2 3 3 2 2 2 1 1 0 1 2 2 3 5 4 4 4 6 6 6 5 3 3 1 1
7 7 8 8 8 8 8 8 8 7 6 5 6 5 4 5 4 3 3 3 2 3 3 2 2 2 1 2 1 2 1 2 4 4 3 3 2 3 3 3 2 2 1
7 7 8 8 9 10 9 9 9 8 6 5 5 5 4 4 4 4 2 4 4 4 5 5 4 1 2 1 2 5 6 7 9 2 2 2 2 2 3 3 3 2 3
Wind_Direction
259 51 81 85 78 46 33 8 1 18 139 176 204 184 214 221 254 235 236 229 229 253 231 210 214 201 204 210 203 200 196 219 160 113 347 327 264 245 223 205 202 206 198
85 73 73 64 63 67 40 25 16 7 12 22 63 214 192 221 226 225 238 241 237 230 248 239 226 203 212 208 201 195 208 229 191 155 110 232 316 254 231 219 213 208 189
124 102 78 77 58 44 29 17 1 356 348 359 338 20 14 50 114 222 229 230 226 231 205 221 238 226 204 207 204 208 204 227 257 235 154 146 225 201 219 227 217 208 196
120 110 100 87 83 54 24 5 2 347 349 21 36 22 175 250 264 254 257 253 231 232 225 213 213 203 215 241 234 215 217 202 212 247 251 264 143 194 284 286 237 212 207
128 114 97 105 88 59 27 352 345 353 340 348 32 34 311 224 267 295 319 300 268 235 222 221 213 210 226 232 224 227 219 216 225 218 200 234 235 227 171 258 281 252 204
121 112 89 96 88 49 34 14 9 355 3 8 355 358 319 306 322 323 325 318 316 302 279 243 212 218 221 207 222 226 220 228 234 230 228 218 214 222 227 230 230 260 273
127 121 110 93 78 67 41 16 18 9 10 22 19 11 12 356 359 4 357 0 351 2 3 353 277 237 219 224 226 223 242 239 234 229 223 232 240 234 203 197 213 205 203
147 147 146 128 96 86 60 34 27 32 28 26 22 28 36 41 42 37 34 32 25 7 7 8 6 341 274 245 226 206 242 259 260 250 225 222 234 219 220 210 203 200 216
159 153 133 127 108 101 72 59 48 41 31 23 20 31 32 36 30 28 29 23 10 3 10 18 10 359 360 331 303 241 255 256 267 255 231 222 217 205 228 262 247 207 215
154 140 128 131 121 125 92 66 64 59 35 27 31 38 36 37 31 35 28 16 5 7 11 17 23 13 6 6 1 342 345 316 307 328 298 42 61 42 47 91 94 78 340
151 139 132 129 122 102 85 72 60 50 37 37 38 39 32 30 30 32 20 12 11 14 19 10 20 23 17 9 5 7 1 336 15 18 57 82 88 89 89 70 102 121 121
152 143 137 126 120 105 86 77 62 57 51 54 54 43 36 29 31 21 13 9 22 19 22 17 31 25 28 28 33 28 16 17 20 23 44 68 59 72 97 116 111 127 86
139 128 110 129 130 113 96 85 69 57 65 64 59 46 38 34 27 11 11 11 16 38 39 42 43 36 34 33 41 55 54 45 38 36 35 21 70 61 46 58 82 57 57
152 142 120 128 141 132 115 106 81 64 74 76 68 62 47 44 29 20 17 31 16 42 45 45 46 47 47 45 42 54 63 60 54 54 52 42 49 52 49 41 41 67 56
158 157 153 147 150 120 116 108 96 72 77 84 78 77 64 45 38 38 33 35 27 31 52 58 53 44 55 55 59 59 59 62 62 50 53 53 70 70 63 55 37 56 57
166 162 162 151 136 134 123 112 103 91 93 90 83 67 63 56 47 49 47 48 45 44 49 48 52 54 59 67 72 69 69 68 62 59 51 51 47 46 75 87 88 102 107
169 169 170 151 145 144 136 127 120 108 88 96 91 75 74 72 61 60 63 58 55 54 53 46 48 50 68 77 78 74 65 61 58 57 49 57 55 60 56 37 35 17 33
158 161 151 138 137 128 120 114 105 95 92 84 90 95 92 81 71 73 63 63 69 59 58 46 40 55 69 73 78 82 64 68 76 78 74 74 54 21 30 32 6 1 345
131 141 137 141 131 129 128 115 106 109 105 105 104 99 106 96 93 83 77 77 85 76 76 71 42 48 39 80 89 90 77 75 69 58 69 68 32 18 46 42 14 15 22
140 143 147 138 130 134 133 121 114 121 125 126 116 106 106 108 103 97 106 94 101 101 84 23 9 67 33 55 70 74 77 65 51 33 27 32 45 27 9 60 30 16 322
131 136 138 147 157 136 122 112 111 132 130 123 115 105 100 120 121 131 146 123 72 80 48 85 62 63 62 36 55 61 48 53 54 46 21 350 13 353 344 353 17 245 255
152 148 139 136 130 128 116 119 158 151 137 122 120 130 143 144 151 160 180 169 135 118 128 109 59 25 10 63 44 42 51 59 72 57 268 287 327 338 339 359 312 328 18
172 156 145 134 137 143 137 157 163 158 143 145 157 168 178 170 179 177 188 195 193 175 182 169 152 281 313 360 24 26 25 2 90 317 320 322 326 332 344 319 321 35 42
179 157 152 157 159 157 154 160 170 174 170 174 174 182 176 182 187 148 123 130 121 142 160 161 171 262 92 28 17 32 12 4 354 339 329 319 333 338 335 346 346 321 228
176 171 173 168 172 175 169 167 182 184 192 178 177 175 182 156 134 109 145 137 179 165 169 191 179 168 227 252 291 352 326 299 310 357 344 341 351 345 344 345 347 345 345
176 178 181 167 180 182 179 182 187 187 180 189 178 179 176 179 164 148 90 126 146 118 126 147 163 253 232 281 316 326 327 322 321 20 328 321 318 305 322 324 318 319 335